Waarnemingen

Advertentie
Mijn weer
Calvi, Frankrijk (7754): temperatuur & dauwpunt: 17.01.2018 02:00:00 - 23.01.2018 02:00:00 (CET)Calvi, Frankrijk (7754): temperatuur 5cm: 17.01.2018 02:00:00 - 23.01.2018 02:00:00 (CET)Calvi, Frankrijk (7754): windsnelheid & windstoten: 17.01.2018 02:00:00 - 23.01.2018 02:00:00 (CET)Calvi, Frankrijk (7754): windrichting: 17.01.2018 02:00:00 - 23.01.2018 02:00:00 (CET)Calvi, Frankrijk (7754): luchtdruk: 17.01.2018 02:00:00 - 23.01.2018 02:00:00 (CET)Calvi, Frankrijk (7754): zicht: 17.01.2018 02:00:00 - 23.01.2018 02:00:00 (CET)Calvi, Frankrijk (7754): Zonneschijnduur: 17.01.2018 02:00:00 - 23.01.2018 02:00:00 (CET)Calvi, Frankrijk (7754): neerslag: 17.01.2018 02:00:00 - 23.01.2018 02:00:00 (CET)
Datum & Tijd tt [°C] td [°C] tt 5cm [°C] ff [km/u] ff [kn] fx [km/u] fx [kn] dd ppp [hPa] vv [km] sd [min] rr [mm]
23.01.2018 02:00:00 13,7 8,1 12,6 16 8 32 17 Z 1014,4 60 0 0,0
23.01.2018 01:00:00 14,2 7,9 13,0 17 9 35 19 ZZW 1014,4 60 0 0,0
23.01.2018 00:00:00 14,6 8,3 13,5 20 11 39 21 ZZW 1014,8 58 0 0,0
22.01.2018 23:00:00 15,1 8,8 14,2 26 14 49 26 Z 1014,7 55 0 0,0
22.01.2018 22:00:00 15,1 8,6 14,5 30 16 54 29 Z 1015,1 53 0 0,0
22.01.2018 21:00:00 15,4 7,9 14,7 32 18 57 31 Z 1014,7 57 0 0,0
22.01.2018 20:00:00 15,9 7,4 15,3 37 20 68 37 ZZW 1013,1 60 0 0,0
22.01.2018 19:00:00 16,6 7,2 14,9 38 20 67 36 ZZW 1011,9 60 0 0,0
22.01.2018 18:00:00 15,7 8,0 14,5 22 12 40 21 Z 1013,6 60 0 0,0
22.01.2018 17:00:00 15,4 9,1 15,0 23 12 44 24 ZZW 1013,6 58 34 0,0
22.01.2018 16:00:00 16,6 9,5 16,6 14 8 29 16 ZZW 1014,2 51 22 0,0
22.01.2018 15:00:00 15,9 10,6 16,1 10 5 28 15 O 1014,2 20 19 0,0
22.01.2018 14:00:00 16,9 8,8 17,5 6 4 32 17 WNW 1013,9 42 2 0,0
22.01.2018 13:00:00 17,1 7,7 17,2 23 13 38 21 ZZW 1014,1 60 5 0,0
22.01.2018 12:00:00 16,6 7,8 16,6 16 8 44 24 ZZW 1014,4 60 0 0,0
22.01.2018 11:00:00 16,3 7,8 15,3 22 12 39 21 ZZW 1014,7 59 4 0,0
22.01.2018 10:00:00 15,3 7,8 13,8 19 11 33 18 ZZW 1014,4 59 0 0,0
22.01.2018 09:00:00 14,2 7,3 13,1 19 10 37 20 Z 1013,6 60 0 0,0
22.01.2018 08:00:00 14,1 6,7 13,5 26 14 37 20 Z 1013,3 60 0 0,0
22.01.2018 07:00:00 14,9 5,9 13,5 22 12 36 19 ZZW 1012,8 60 0 0,0
22.01.2018 06:00:00 14,8 6,9 13,4 19 10 35 19 ZZW 1012,6 60 0 0,0
22.01.2018 05:00:00 14,4 7,2 13,3 17 9 36 20 Z 1011,9 60 0 0,0
22.01.2018 04:00:00 13,9 7,9 12,5 19 10 30 16 Z 1011,8 57 0 0,0
22.01.2018 03:00:00 13,9 7,6 12,8 22 12 42 23 ZZO 1011,9 55 0 0,0
22.01.2018 02:00:00 15,1 7,1 13,7 17 9 46 25 Z 1011,8 60 0 0,0
22.01.2018 01:00:00 15,5 6,5 12,7 16 9 37 20 Z 1012,1 60 0 0,0
22.01.2018 00:00:00 15,1 6,4 13,3 19 10 40 22 Z 1011,8 60 0 0,0
21.01.2018 23:00:00 15,6 5,8 13,2 13 7 38 20 ZZW 1011,4 60 0 0,0
21.01.2018 22:00:00 15,4 5,3 13,9 19 11 36 20 ZZW 1011,5 60 0 0,0
21.01.2018 21:00:00 15,0 5,2 13,8 19 10 39 21 Z 1011,2 60 0 0,0
21.01.2018 20:00:00 15,1 5,6 13,5 22 12 37 20 Z 1010,7 57 0 0,0
21.01.2018 19:00:00 14,5 5,8 13,4 14 8 39 21 Z 1010,0 53 0 0,0
21.01.2018 18:00:00 14,4 6,7 13,1 20 11 32 17 Z 1009,5 35 0 0,0
21.01.2018 17:00:00 15,0 7,0 14,4 10 5 27 15 Z 1008,7 39 35 0,0
21.01.2018 16:00:00 17,8 6,6 19,6 14 8 36 20 ZZW 1008,3 20 60 0,0
21.01.2018 15:00:00 19,2 5,6 21,2 11 6 30 16 ZW 1007,5 49 60 0,0
21.01.2018 14:00:00 19,3 5,7 19,8 16 9 32 18 ZZW 1006,7 20 60 0,0
21.01.2018 13:00:00 18,7 7,2 19,2 21 11 41 22 ZZW 1007,0 50 60 0,0
21.01.2018 12:00:00 17,6 6,8 19,0 25 13 45 24 Z 1007,3 20 60 0,0
21.01.2018 11:00:00 16,9 6,4 17,8 24 13 41 22 Z 1007,6 20 60 0,0
21.01.2018 10:00:00 16,2 7,4 14,5 21 11 39 21 Z 1007,0 20 44 0,0
21.01.2018 09:00:00 15,0 7,8 14,4 24 13 50 27 Z 1006,6 20 0 0,0
21.01.2018 08:00:00 15,3 8,1 14,5 24 13 63 34 Z 1006,3 35 0 0,0
21.01.2018 07:00:00 15,1 9,2 14,5 31 17 64 35 ZZW 1006,2 34 0 0,0
21.01.2018 06:00:00 15,2 9,5 14,6 34 18 64 35 Z 1005,5 20 0 0,0
21.01.2018 05:00:00 15,4 9,7 14,8 34 19 81 44 ZZW 1005,3 35 0 0,0
21.01.2018 04:00:00 15,5 9,6 14,6 36 19 82 44 ZZW 1005,5 38 0 0,0
21.01.2018 03:00:00 15,2 9,8 13,9 48 26 84 45 ZZW 1006,0 37 0 0,0
21.01.2018 02:00:00 14,4 10,0 13,5 39 21 79 42 ZZW 1006,9 36 0 0,0
21.01.2018 01:00:00 13,8 9,8 12,3 36 19 69 38 ZZW 1008,0 37 0 0,0
21.01.2018 00:00:00 13,1 9,7 10,9 33 18 63 34 ZZW 1009,1 37 0 0,0
20.01.2018 23:00:00 12,3 9,7 9,8 34 19 58 31 ZZW 1009,5 11 0 0,6
20.01.2018 22:00:00 10,9 9,0 9,1 27 15 49 26 Z 1011,0 5 0 1,7
20.01.2018 21:00:00 10,3 8,1 8,4 26 14 50 27 Z 1012,0 5 0 1,8
20.01.2018 20:00:00 9,6 7,2 8,2 26 14 54 29 Z 1012,6 7 0 0,6
20.01.2018 19:00:00 10,2 5,8 8,0 22 12 54 29 Z 1013,2 60 0 0,8
20.01.2018 18:00:00 9,9 5,9 7,8 27 15 46 25 Z 1014,1 29 0 1,4
20.01.2018 17:00:00 12,0 1,9 11,1 24 13 44 24 ZZW 1013,6 58 0 0,0
20.01.2018 16:00:00 12,0 2,2 12,3 33 18 54 29 Z 1013,7 56 1 0,0
20.01.2018 15:00:00 13,5 1,8 13,7 27 15 58 31 ZZW 1013,6 49 57 0,0
20.01.2018 14:00:00 13,3 2,2 13,2 23 12 52 28 ZZW 1013,5 20 19 0,0
20.01.2018 13:00:00 12,8 1,5 14,3 15 8 40 22 ZW 1014,2 55 43 0,0
20.01.2018 12:00:00 13,1 1,4 14,3 17 9 52 28 ZW 1015,0 57 57 0,0
20.01.2018 11:00:00 12,8 1,1 11,9 24 13 51 28 ZW 1015,1 20 50 0,0
20.01.2018 10:00:00 11,8 2,0 10,8 20 11 35 19 ZW 1015,2 59 16 0,0
20.01.2018 09:00:00 10,6 2,2 9,4 10 6 22 12 Z 1015,4 53 5 0,0
20.01.2018 08:00:00 10,7 1,5 10,0 14 8 24 13 ZZW 1015,4 60 0 0,0
20.01.2018 07:00:00 11,4 2,1 10,7 14 8 29 15 ZZW 1015,1 60 0 0,0
20.01.2018 06:00:00 11,7 2,7 10,9 12 6 32 18 ZZW 1014,7 60 0 0,0
20.01.2018 05:00:00 11,6 2,9 10,8 16 9 38 20 Z 1014,2 59 0 0,0
20.01.2018 04:00:00 12,3 3,2 10,8 19 10 31 17 Z 1014,2 59 0 0,0
20.01.2018 03:00:00 11,8 3,3 10,9 15 8 31 17 ZZW 1014,8 55 0 0,0
20.01.2018 02:00:00 12,1 2,8 11,4 13 7 32 17 ZZW 1014,9 59 0 0,0
20.01.2018 01:00:00 12,3 3,5 11,3 19 10 32 17 ZZW 1014,9 51 0 0,0
20.01.2018 00:00:00 12,4 3,1 11,6 16 9 34 18 ZZW 1014,8 56 0 0,0
19.01.2018 23:00:00 12,5 3,4 11,7 15 8 39 21 ZZW 1014,7 53 0 0,0
19.01.2018 22:00:00 12,7 4,1 11,8 19 11 42 23 Z 1014,0 48 0 0,0
19.01.2018 21:00:00 13,0 4,4 12,1 20 11 42 23 Z 1013,9 49 0 0,0
19.01.2018 20:00:00 12,9 4,8 12,1 22 12 41 22 Z 1013,7 44 0 0,0
19.01.2018 19:00:00 13,2 4,9 12,3 24 13 42 23 Z 1013,9 44 0 0,0
19.01.2018 18:00:00 13,1 4,3 12,4 22 12 44 24 Z 1012,9 51 0 0,0
19.01.2018 17:00:00 13,4 5,3 13,0 27 15 54 29 ZW 1011,8 52 0 0,0
19.01.2018 16:00:00 14,2 4,7 14,3 26 14 62 34 ZW 1011,3 60 17 0,0
19.01.2018 15:00:00 15,5 4,2 16,3 33 18 67 36 ZZW 1010,9 55 57 0,0
19.01.2018 14:00:00 15,9 6,9 16,7 34 18 64 35 ZZW 1011,4 50 60 0,0
19.01.2018 13:00:00 16,4 7,1 17,5 39 21 69 37 ZZW 1011,7 20 60 0,0
19.01.2018 12:00:00 16,3 7,8 16,1 36 19 66 35 ZZW 1012,3 55 60 0,0
19.01.2018 11:00:00 15,3 7,1 15,1 35 19 57 31 ZZW 1012,0 10 49 0,0
19.01.2018 10:00:00 15,0 7,3 13,8 28 15 53 28 ZZW 1012,6 10 55 0,0
19.01.2018 09:00:00 14,0 6,4 12,6 25 13 51 27 ZZW 1012,3 59 1 0,0
19.01.2018 08:00:00 13,4 6,3 12,2 34 18 56 30 Z 1012,6 10 0 0,0
19.01.2018 07:00:00 12,9 6,5 12,2 24 13 61 33 ZZW 1012,6 10 0 0,0
19.01.2018 06:00:00 13,5 6,6 12,5 39 21 71 38 Z 1012,1 10 0 0,0
19.01.2018 05:00:00 12,9 6,9 12,2 31 17 56 31 Z 1013,2 10 0 0,0
19.01.2018 04:00:00 12,8 7,0 12,2 37 20 61 33 ZZW 1013,8 10 0 0,0
19.01.2018 03:00:00 12,8 6,4 12,1 37 20 67 36 ZZW 1014,2 10 0 0,0
19.01.2018 02:00:00 13,0 6,3 12,2 37 20 74 40 Z 1014,0 10 0 0,0
19.01.2018 01:00:00 12,8 6,4 12,3 35 19 68 37 Z 1013,6 10 0 0,0
19.01.2018 00:00:00 13,3 6,2 12,3 37 20 68 37 ZZW 1014,4 10 0 0,0
18.01.2018 23:00:00 13,1 6,4 12,2 35 19 63 34 ZZW 1015,4 10 0 0,0
18.01.2018 22:00:00 12,8 6,4 11,8 31 17 61 33 ZZW 1016,1 10 0 0,0
18.01.2018 21:00:00 12,5 6,7 11,8 34 18 64 35 ZZW 1016,4 10 0 0,0
18.01.2018 20:00:00 12,3 7,4 11,1 31 17 56 31 ZZW 1017,0 10 0 0,0
18.01.2018 19:00:00 12,2 7,3 11,3 26 14 63 34 Z 1017,5 10 0 0,0
18.01.2018 18:00:00 12,6 6,8 12,3 31 17 64 35 Z 1017,7 10 0 0,0
18.01.2018 17:00:00 12,7 5,6 12,4 32 17 64 35 Z 1017,8 46 0 0,0
18.01.2018 16:00:00 13,0 4,9 12,9 38 20 63 34 Z 1017,6 51 35 0,0
18.01.2018 15:00:00 14,2 4,5 15,6 31 17 68 37 ZZW 1017,8 10 60 0,0
18.01.2018 14:00:00 14,5 3,9 15,3 35 19 72 39 ZZW 1018,1 38 60 0,0
18.01.2018 13:00:00 14,0 4,6 14,7 37 20 67 36 ZZW 1018,5 38 60 0,0
18.01.2018 12:00:00 13,6 4,2 15,0 40 22 62 34 ZZW 1019,5 44 60 0,0
18.01.2018 11:00:00 13,4 2,9 12,5 31 17 57 31 ZZW 1020,2 10 56 0,0
18.01.2018 10:00:00 12,4 2,5 11,1 29 15 61 33 ZZW 1020,3 48 60 0,0
18.01.2018 09:00:00 11,2 1,7 9,7 28 15 58 31 ZW 1020,3 10 10 0,0
18.01.2018 08:00:00 10,3 0,6 9,1 31 17 56 30 ZZW 1019,1 10 0 0,0
18.01.2018 07:00:00 10,0 0,0 8,8 28 15 46 25 ZZW 1019,3 10 0 0,0
18.01.2018 06:00:00 9,8 -0,1 9,0 28 15 50 27 ZZW 1019,4 10 0 0,0
18.01.2018 05:00:00 9,9 -0,6 8,8 27 14 53 29 ZZW 1019,0 60 0 0,0
18.01.2018 04:00:00 10,2 -0,3 8,9 26 14 43 23 ZZW 1019,5 10 0 0,0
18.01.2018 03:00:00 9,9 -0,3 8,7 21 11 41 22 ZZW 1020,2 60 0 0,0
18.01.2018 02:00:00 9,4 -0,2 8,5 18 10 31 17 ZZW 1019,2 10 0 0,0
18.01.2018 01:00:00 9,7 0,0 8,8 16 9 29 15 Z 1019,5 10 0 0,0
18.01.2018 00:00:00 9,9 0,2 9,4 16 9 31 17 Z 1019,4 10 0 0,0
17.01.2018 23:00:00 10,0 0,8 9,1 14 7 24 13 Z 1019,0 54 0 0,0
17.01.2018 22:00:00 11,2 0,6 9,7 15 8 30 16 ZZW 1018,5 10 0 0,0
17.01.2018 21:00:00 11,5 0,0 10,4 15 8 31 17 ZZW 1017,6 59 0 0,0
17.01.2018 20:00:00 11,7 -0,5 10,5 16 9 41 22 ZZW 1017,0 10 0 0,0
17.01.2018 19:00:00 11,9 -1,3 10,8 13 7 38 21 ZW 1015,9 10 0 0,0
17.01.2018 18:00:00 12,4 -0,5 11,2 21 11 55 30 ZZW 1015,1 10 0 0,0
17.01.2018 17:00:00 12,5 -1,1 11,9 13 7 46 25 ZW 1014,1 10 31 0,0
17.01.2018 16:00:00 13,0 -0,7 13,0 26 14 59 32 ZW 1012,9 10 20 0,0
17.01.2018 15:00:00 13,5 -0,6 13,9 24 13 74 40 ZW 1011,7 10 44 0,0
17.01.2018 14:00:00 13,3 0,0 13,9 34 18 82 45 ZW 1011,0 10 43 0,0
17.01.2018 13:00:00 13,7 0,0 14,2 41 22 113 61 ZW 1011,0 10 60 0,0
17.01.2018 12:00:00 13,9 -0,6 14,2 45 24 98 53 ZW 1010,3 22 45 0,0
17.01.2018 11:00:00 14,1 2,9 14,1 32 17 66 36 ZW 1009,9 20 44 0,0
17.01.2018 10:00:00 13,8 4,1 13,3 31 17 95 51 ZW 1010,6 20 8 0,0
17.01.2018 09:00:00 13,9 6,7 13,6 37 20 94 51 ZZW 1009,6 20 0 0,0
17.01.2018 08:00:00 14,2 7,0 13,5 24 13 80 43 ZZW 1009,1 10 0 0,0
17.01.2018 07:00:00 14,8 8,1 14,3 34 18 82 45 ZZW 1009,3 10 0 0,0
17.01.2018 06:00:00 14,9 8,6 14,4 37 20 71 39 Z 1009,2 10 0 0,0
17.01.2018 05:00:00 15,3 8,8 14,7 29 16 79 43 ZZW 1008,9 10 0 0,0
17.01.2018 04:00:00 15,5 8,7 14,8 46 25 101 55 Z 1008,8 10 0 0,0
17.01.2018 03:00:00 15,5 8,2 14,8 48 26 100 54 ZZW 1009,5 10 0 0,0
17.01.2018 02:00:00 15,4 8,2 14,7 48 26 91 49 Z 1010,3 10 0 0,0

tt = temperatuur
td = dauwpunt
tt 5cm = temperatuur 5cm
ff = windsnelheid
fx = windstoten
dd = windrichting
ppp = luchtdruk
vv = zicht
sd = Zonneschijnduur
rr = neerslag

Weerstations in de omgeving